User: anonymous   Login
Location: Dresden
(51.0300°N, 13.7800°E)
Time: 08:23:53
(UTC+02:00)
Language:

METEOR M2-3 - Orbit

View from above orbital plane
View from above orbital plane
View from above satellite
View from above satellite

Ground track
Ground track

The orbit data is extracted from the following two-line orbital elements,

1 57166U 23091A   24140.86705627  .00000133  00000-0  77123-4 0  9993
2 57166  98.7144 195.7916 0003589 195.7846 164.3221 14.23893286 46592
Epoch (UTC): 19 May 2024 20:48:33
Eccentricity: 0.0003589
inclination: 98.7144°
perigee height: 809 km
apogee height: 815 km
right ascension of ascending node: 195.7916°
argument of perigee: 195.7846°
revolutions per day: 14.23893286
mean anomaly at epoch: 164.3221°
orbit number at epoch: 4659

The dashed part of the orbit path shows where the satellite is in the earth's shadow,  

DLR